K1MIZ Weather Reports


time (UTC)temp
C
wind
direction
speed
KPH
gust
KPH
rain 1hr
cm
rain 24hr
cm
rain mn
cm
humidity
%
barometer
mb
20260504224023 21 146 1.6 22.5 0.00 0.00 0.00 35 1006.7
20260504223523 21 200 1.6 24.1 0.00 0.00 0.00 34 1006.8
20260504223035 21 285 11.3 24.1 0.00 0.00 0.00 34 1006.7
20260504222519 21 198 11.3 24.1 0.00 0.00 0.00 34 1006.7
20260504222020 21 289 4.8 17.7 0.00 0.00 0.00 34 1006.6
20260504221535 21 297 4.8 19.3 0.00 0.00 0.00 34 1006.6
20260504221020 21 284 8.0 19.3 0.00 0.00 0.00 34 1006.7
20260504220521 21 221 9.7 24.1 0.00 0.00 0.00 34 1006.8
20260504220036 21 265 11.3 24.1 0.00 0.00 0.00 34 1006.7
20260504215520 21 226 9.7 22.5 0.00 0.00 0.00 33 1006.7
20260504215023 21 191 8.0 17.7 0.00 0.00 0.00 34 1006.8
20260504214544 21 307 3.2 22.5 0.00 0.00 0.00 35 1006.7
20260504214023 21 273 4.8 30.6 0.00 0.00 0.00 34 1006.7
20260504213522 21 285 14.5 30.6 0.00 0.00 0.00 33 1006.8
20260504213039 21 144 11.3 29.0 0.00 0.00 0.00 34 1006.7
20260504212520 21 196 6.4 29.0 0.00 0.00 0.00 33 1006.8
20260504212019 22 245 9.7 30.6 0.00 0.00 0.00 33 1006.8
20260504211547 22 246 11.3 30.6 0.00 0.00 0.00 33 1006.7
20260504211021 22 245 11.3 27.4 0.00 0.00 0.00 35 1006.8
20260504210520 21 196 4.8 22.5 0.00 0.00 0.00 35 1006.7
20260504210051 21 263 9.7 22.5 0.00 0.00 0.00 34 1006.8
20260504205520 21 281 6.4 22.5 0.00 0.00 0.00 35 1006.8
20260504205019 21 237 8.0 22.5 0.00 0.00 0.00 34 1006.7
20260504204539 21 297 4.8 22.5 0.00 0.00 0.00 36 1006.7
20260504204020 21 234 9.7 22.5 0.00 0.00 0.00 34 1006.7
20260504203521 21 307 11.3 20.9 0.00 0.00 0.00 33 1006.8
20260504203035 21 184 6.4 20.9 0.00 0.00 0.00 34 1006.8
20260504202520 21 163 6.4 22.5 0.00 0.00 0.00 34 1006.8
20260504202021 22 284 9.7 22.5 0.00 0.00 0.00 34 1006.8
20260504201533 22 263 9.7 22.5 0.00 0.00 0.00 33 1006.7
20260504201021 22 265 6.4 17.7 0.00 0.00 0.00 32 1006.7
20260504200520 22 287 3.2 20.9 0.00 0.00 0.00 34 1006.7
20260504200039 22 263 9.7 24.1 0.00 0.00 0.00 34 1006.7
20260504195519 21 128 8.0 27.4 0.00 0.00 0.00 35 1006.6
20260504195019 21 251 14.5 29.0 0.00 0.00 0.00 32 1006.8
20260504194557 21 290 8.0 29.0 0.00 0.00 0.00 35 1006.7
20260504194020 22 279 16.1 37.0 0.00 0.00 0.00 32 1006.7
20260504193520 21 279 16.1 37.0 0.00 0.00 0.00 32 1006.7
20260504193035 22 271 12.9 37.0 0.00 0.00 0.00 32 1006.9
20260504192520 22 321 14.5 29.0 0.00 0.00 0.00 31 1006.8
20260504192022 22 256 11.3 29.0 0.00 0.00 0.00 35 1006.7
20260504191545 21 319 9.7 30.6 0.00 0.00 0.00 35 1006.9
20260504191021 21 241 9.7 30.6 0.00 0.00 0.00 32 1006.8
20260504190523 21 271 12.9 30.6 0.00 0.00 0.00 34 1006.8
20260504190055 21 267 6.4 30.6 0.00 0.00 0.00 32 1006.9
20260504185523 21 193 11.3 24.1 0.00 0.00 0.00 33 1006.8
20260504185022 21 281 9.7 29.0 0.00 0.00 0.00 34 1006.9
20260504184541 21 244 8.0 30.6 0.00 0.00 0.00 36 1007.0
20260504184020 21 255 17.7 30.6 0.00 0.00 0.00 31 1006.9
20260504183523 21 323 11.3 29.0 0.00 0.00 0.00 32 1006.9
20260504183038 21 288 14.5 29.0 0.00 0.00 0.00 33 1007.3
20260504182519 21 185 4.8 35.4 0.00 0.00 0.00 35 1007.1
20260504182019 21 337 11.3 35.4 0.00 0.00 0.00 33 1007.2
20260504181546 21 301 16.1 33.8 0.00 0.00 0.00 32 1007.1
20260504181020 21 136 9.7 29.0 0.00 0.00 0.00 33 1007.0
20260504180522 21 292 8.0 29.0 0.00 0.00 0.00 33 1007.2
20260504180052 21 184 6.4 29.0 0.00 0.00 0.00 34 1007.3
20260504175520 21 261 8.0 19.3 0.00 0.00 0.00 34 1007.1
20260504175020 20 270 4.8 33.8 0.00 0.00 0.00 37 1007.2
20260504174542 20 121 11.3 33.8 0.00 0.00 0.00 36 1007.3
20260504174020 20 307 12.9 33.8 0.00 0.00 0.00 34 1007.2
20260504173522 20 98 8.0 25.7 0.00 0.00 0.00 38 1007.2
20260504173044 20 313 9.7 25.7 0.00 0.00 0.00 34 1007.4
20260504172519 20 290 8.0 32.2 0.00 0.00 0.00 36 1007.5
20260504172020 20 108 9.7 32.2 0.00 0.00 0.00 38 1007.4
20260504171539 20 212 11.3 32.2 0.00 0.00 0.00 35 1007.5
20260504171020 20 151 12.9 29.0 0.00 0.00 0.00 36 1007.6
20260504170521 20 217 9.7 33.8 0.00 0.00 0.00 35 1007.5
20260504151020 17 159 4.8 19.3 0.00 0.03 0.00 43 1008.7
20260504150520 17 140 8.0 20.9 0.00 0.03 0.00 41 1008.6
20260504141020 16 302 6.4 30.6 0.00 0.03 0.00 48 1009.4
20260504140520 15 277 11.3 37.0 0.00 0.03 0.00 45 1009.5
20260504130520 14 152 6.4 19.3 0.00 0.03 0.00 52 1009.9
20260504110523 8 217 1.6 14.5 0.00 0.03 0.00 63 1010.5
20260504100519 6 0 0.0 6.4 0.00 0.03 0.00 67 1010.6
20260504081537 5 0 0.0 0.0 0.00 0.03 0.00 75 1010.5
20260504081022 5 0 0.0 1.6 0.00 0.03 0.00 74 1010.4
20260504080519 5 0 0.0 1.6 0.00 0.03 0.00 74 1010.5
20260504050519 0 0 0.0 3.2 0.00 0.03 0.00 86 1010.6
20260504050105 0 290 0.0 3.2 0.00 0.03 0.00 87 1010.6
20260504045518 0 0 0.0 3.2 0.00 0.03 0.00 86 1010.6
20260504045019 0 0 0.0 3.2 0.00 0.03 0.00 86 1010.6
20260504044539 0 277 0.0 3.2 0.00 0.03 0.00 85 1010.6
20260504044020 0 0 0.0 1.6 0.00 0.03 0.00 85 1010.6
20260504043522 0 0 0.0 1.6 0.00 0.03 0.00 85 1010.5
20260504043036 0 0 0.0 3.2 0.00 0.03 0.00 85 1010.6
20260504042520 0 0 0.0 3.2 0.00 0.03 0.00 85 1010.6
20260504042019 0 0 0.0 1.6 0.00 0.03 0.00 84 1010.6
20260504041537 0 0 0.0 1.6 0.00 0.03 0.00 84 1010.5
20260504041019 0 0 0.0 1.6 0.00 0.03 0.00 84 1010.4
20260504040519 0 0 0.0 1.6 0.00 0.03 0.00 84 1010.4
20260504040040 0 0 0.0 1.6 0.00 0.03 0.00 84 1010.4
20260504035519 0 0 0.0 1.6 0.00 0.03 0.03 84 1010.4
20260504035023 0 0 0.0 1.6 0.00 0.03 0.03 83 1010.4
20260504034546 0 0 0.0 1.6 0.00 0.03 0.03 83 1010.4
20260504034025 0 0 0.0 1.6 0.00 0.03 0.03 83 1010.3
20260504033530 0 0 0.0 1.6 0.00 0.03 0.03 83 1010.3
20260504033044 0 0 0.0 1.6 0.00 0.03 0.03 83 1010.3
20260504032519 0 0 0.0 1.6 0.00 0.03 0.03 83 1010.3
20260504032020 0 0 0.0 1.6 0.00 0.03 0.03 83 1010.3
20260504031556 0 0 0.0 1.6 0.00 0.03 0.03 82 1010.2
20260504031020 0 0 0.0 1.6 0.00 0.03 0.03 82 1010.2
20260504030519 1 277 0.0 1.6 0.00 0.03 0.03 82 1010.3
20260504030041 1 0 0.0 1.6 0.00 0.03 0.03 81 1010.3
20260504025525 1 0 0.0 1.6 0.00 0.03 0.03 81 1010.3
20260504025020 1 0 0.0 1.6 0.00 0.03 0.03 81 1010.3
20260504024540 1 0 0.0 1.6 0.00 0.03 0.03 80 1010.3
20260504024022 1 0 0.0 1.6 0.00 0.03 0.03 80 1010.1
20260504023519 1 0 0.0 1.6 0.00 0.03 0.03 80 1010.1
20260504023034 1 0 0.0 1.6 0.00 0.03 0.03 79 1010.2
20260504022521 1 0 0.0 1.6 0.00 0.03 0.03 79 1010.2
20260504022020 1 0 0.0 1.6 0.00 0.03 0.03 78 1010.2
20260504021541 2 0 0.0 1.6 0.00 0.03 0.03 78 1010.1
20260504021019 2 0 0.0 1.6 0.00 0.03 0.03 77 1010.2
20260504020519 2 0 0.0 1.6 0.00 0.03 0.03 77 1010.1
20260504020041 2 0 0.0 1.6 0.00 0.03 0.03 76 1010.1
20260504015519 2 0 0.0 1.6 0.00 0.03 0.03 75 1010.0
20260504015020 2 0 0.0 0.0 0.00 0.03 0.03 75 1010.0
20260504014539 2 0 0.0 1.6 0.00 0.03 0.03 74 1010.0
20260504014020 3 0 0.0 1.6 0.00 0.03 0.03 74 1009.9
20260504013519 3 277 0.0 1.6 0.00 0.03 0.03 73 1009.9
20260504013037 3 0 0.0 1.6 0.00 0.03 0.03 73 1009.9
20260504012522 3 0 0.0 1.6 0.00 0.03 0.03 72 1009.9
20260504012019 3 0 0.0 0.0 0.00 0.03 0.03 70 1009.8
20260504011536 4 0 0.0 1.6 0.00 0.03 0.03 69 1009.8
20260504011019 4 0 0.0 3.2 0.00 0.03 0.03 68 1009.8
20260504010521 5 277 0.0 3.2 0.00 0.03 0.03 67 1009.7
20260504010042 5 277 0.0 1.6 0.00 0.03 0.03 65 1009.6
20260504005519 5 0 0.0 1.6 0.00 0.03 0.03 62 1009.6
20260504005020 6 0 0.0 1.6 0.00 0.03 0.03 61 1009.5
20260504004534 6 0 0.0 1.6 0.00 0.03 0.03 59 1009.4
20260504004019 7 0 0.0 0.0 0.00 0.03 0.03 57 1009.4
20260504003519 7 0 0.0 1.6 0.00 0.03 0.03 55 1009.3
20260504003045 7 0 0.0 3.2 0.00 0.03 0.03 54 1009.3
20260504002520 8 0 0.0 4.8 0.00 0.03 0.03 53 1009.3
20260504002020 8 277 1.6 4.8 0.00 0.03 0.03 52 1009.3
20260504001552 8 277 0.0 6.4 0.00 0.03 0.03 51 1009.2
20260504001020 8 277 1.6 6.4 0.00 0.03 0.03 50 1009.2
20260504000520 8 263 1.6 8.0 0.00 0.03 0.03 50 1009.0
20260504000038 8 269 3.2 9.7 0.00 0.03 0.03 49 1009.0
20260503235519 8 284 3.2 9.7 0.00 0.03 0.03 49 1009.0
20260503235019 9 257 3.2 9.7 0.00 0.03 0.03 48 1008.9
20260503234536 9 269 1.6 9.7 0.00 0.03 0.03 48 1008.9
20260503234020 9 261 3.2 17.7 0.00 0.03 0.03 47 1008.8
20260503233521 9 278 6.4 17.7 0.00 0.03 0.03 47 1008.8
20260503233042 9 277 6.4 22.5 0.00 0.03 0.03 46 1008.8
20260503232519 10 281 6.4 22.5 0.00 0.03 0.03 46 1008.7
20260503232019 10 260 6.4 20.9 0.00 0.03 0.03 46 1008.7
20260503231547 10 306 9.7 20.9 0.00 0.03 0.03 45 1008.7
20260503231019 10 259 8.0 19.3 0.00 0.03 0.03 45 1008.6
20260503230520 10 250 8.0 19.3 0.00 0.03 0.03 45 1008.6
20260503230039 10 277 6.4 17.7 0.00 0.03 0.03 45 1008.6
20260503225519 10 335 4.8 16.1 0.00 0.05 0.03 44 1008.4
20260503225022 10 293 6.4 25.7 0.00 0.05 0.03 44 1008.3
20260503224539 10 286 9.7 25.7 0.00 0.05 0.03 44 1008.3